Friendship, ME

6:31 PM EST on February 05, 2016 (GMT -0500)
Knox County Regional

Weather History for KRKD - March, 2012

Change the Weather History Date:

Friday, March 23, 2012

  Actual Average Record
Temperature  
Mean Temperature 60 °F -  
Max Temperature 66 °F 39 °F 66 °F (2012)
Min Temperature 53 °F 26 °F 8 °F (2004)
Degree Days  
Heating Degree Days 6    
Growing Degree Days 10 (Base 50)    
Moisture  
Dew Point 27 °F    
Average Humidity 33    
Maximum Humidity 64    
Minimum Humidity 11    
Precipitation  
Precipitation 0.07 in - - ()
Sea Level Pressure  
Sea Level Pressure 29.99 in    
Wind  
Wind Speed 8 mph (NW)    
Max Wind Speed 18 mph    
Max Gust Speed 36 mph    
Visibility 10 miles    
Events      
Averages and records for this station are not official NWS values.
T = Trace of Precipitation, MM = Missing Value Source: NWS Daily Summary

Daily Weather History Graph

Daily Weather History Graph

Search for Another Location

Airport or City:

Trip Planner

Search our weather history database for the weather conditions in past years. The results will help you decide how hot, cold, wet, or windy it might be!

Date:

Astronomy

Mar. 23, 2012 Rise Set
Actual Time 6:33 AM EDT 6:53 PM EDT
Civil Twilight 6:04 AM EDT 7:21 PM EDT
Nautical Twilight 5:30 AM EDT 7:56 PM EDT
Astronomical Twilight 4:55 AM EDT 8:31 PM EDT
Moon 6:36 AM EDT (3/23) 8:17 PM EDT (3/23)
Length of Visible Light 13h 17m
Length of Day
12h 19m
New Moon, 1% of the Moon is Illuminated
Mar 23
New Moon
Mar 30
First Quarter
Apr 6
Full
Apr 13
Last Quarter
Apr 21
New

Hourly Weather History & Observations

Time (EDT) Temp. Dew Point Humidity Pressure Visibility Wind Dir Wind Speed Gust Speed Precip Events Conditions
12:15 AM 66.2 °F 51.8 °F 60% 29.97 in 10.0 mi NNW 4.6 mph - N/A   Clear
12:35 AM 64.4 °F 51.8 °F 64% 29.97 in 10.0 mi NW 4.6 mph - N/A   Scattered Clouds
12:55 AM 64.4 °F 50.0 °F 59% 29.97 in 10.0 mi NNW 6.9 mph - N/A   Scattered Clouds
1:15 AM 62.6 °F 46.4 °F 55% 29.97 in 10.0 mi NNW 6.9 mph 16.1 mph N/A   Clear
1:35 AM 62.6 °F 46.4 °F 55% 29.98 in 10.0 mi NW 6.9 mph - N/A   Clear
1:55 AM 62.6 °F 44.6 °F 52% 29.98 in 10.0 mi NW 8.1 mph - N/A   Clear
2:15 AM 62.6 °F 42.8 °F 48% 29.98 in 10.0 mi NNW 8.1 mph - N/A   Clear
2:35 AM 60.8 °F 42.8 °F 52% 29.98 in 10.0 mi NNW 11.5 mph 19.6 mph N/A   Clear
2:55 AM 60.8 °F 42.8 °F 52% 29.99 in 10.0 mi NNW 9.2 mph 24.2 mph N/A   Clear
3:15 AM 60.8 °F 42.8 °F 52% 30.00 in 10.0 mi NNW 9.2 mph 18.4 mph N/A   Clear
3:35 AM 60.8 °F 41.0 °F 48% 30.00 in 10.0 mi NW 11.5 mph 18.4 mph N/A   Clear
3:55 AM 59.0 °F 39.2 °F 48% 30.01 in 10.0 mi NNW 8.1 mph 20.7 mph N/A   Clear
4:15 AM 59.0 °F 39.2 °F 48% 30.02 in 10.0 mi NNW 8.1 mph 16.1 mph N/A   Clear
4:35 AM 57.2 °F 39.2 °F 51% 30.02 in 10.0 mi North 5.8 mph - N/A   Clear
4:55 AM 57.2 °F 35.6 °F 44% 30.02 in 10.0 mi NNW 9.2 mph 18.4 mph N/A   Clear
5:15 AM 57.2 °F 35.6 °F 44% 30.03 in 10.0 mi NNW 6.9 mph - N/A   Clear
5:55 AM 55.4 °F 33.8 °F 44% 30.04 in 10.0 mi NNW 4.6 mph - N/A   Clear
6:15 AM 55.4 °F 33.8 °F 44% 30.05 in 10.0 mi NNW 4.6 mph - N/A   Clear
6:35 AM 53.6 °F 33.8 °F 47% 30.06 in 10.0 mi North 4.6 mph - N/A   Clear
6:55 AM 53.6 °F 33.8 °F 47% 30.07 in 10.0 mi NW 4.6 mph - N/A   Clear
7:15 AM 53.6 °F 33.8 °F 47% 30.07 in 10.0 mi NNW 4.6 mph - N/A   Clear
7:35 AM 53.6 °F 35.6 °F 51% 30.06 in 10.0 mi WNW 4.6 mph - N/A   Clear
7:55 AM 53.6 °F 37.4 °F 54% 30.06 in 10.0 mi NW 3.5 mph - N/A   Clear
8:15 AM 55.4 °F 30.2 °F 38% 30.06 in 10.0 mi NW 8.1 mph - N/A   Clear
8:35 AM 57.2 °F 28.4 °F 33% 30.05 in 10.0 mi NW 6.9 mph - N/A   Clear
8:55 AM 57.2 °F 28.4 °F 33% 30.05 in 10.0 mi NW 8.1 mph - N/A   Clear
9:15 AM 57.2 °F 28.4 °F 33% 30.05 in 9.0 mi WNW 9.2 mph - 0.07 in   Clear
9:35 AM 59.0 °F 28.4 °F 31% 30.05 in 1.2 mi East 3.5 mph - 0.07 in   Clear
9:55 AM 59.0 °F 26.6 °F 29% 30.04 in 0.2 mi NW 9.2 mph 19.6 mph 0.07 in   Unknown
10:15 AM 59.0 °F 21.2 °F 23% 30.04 in 10.0 mi NW 16.1 mph 27.6 mph N/A   Clear
10:35 AM 60.8 °F 21.2 °F 22% 30.03 in 10.0 mi NW 12.7 mph 27.6 mph N/A   Clear
10:55 AM 60.8 °F 17.6 °F 19% 30.03 in 10.0 mi NW 16.1 mph 28.8 mph N/A   Clear
11:15 AM 60.8 °F 17.6 °F 19% 30.01 in 10.0 mi NNW 10.4 mph 21.9 mph N/A   Clear
11:35 AM 60.8 °F 15.8 °F 17% 30.00 in 10.0 mi NW 12.7 mph 21.9 mph N/A   Clear
11:55 AM 62.6 °F 15.8 °F 16% 30.00 in 10.0 mi NNW 11.5 mph 25.3 mph N/A   Clear
12:15 PM 62.6 °F 12.2 °F 14% 29.99 in 10.0 mi NW 18.4 mph 35.7 mph N/A   Clear
12:35 PM 62.6 °F 10.4 °F 13% 29.98 in 10.0 mi NW 12.7 mph 24.2 mph N/A   Clear
12:55 PM 62.6 °F 10.4 °F 13% 29.97 in 10.0 mi WNW 16.1 mph 29.9 mph N/A   Clear
1:15 PM 64.4 °F 10.4 °F 12% 29.97 in 10.0 mi WNW 15.0 mph 27.6 mph N/A   Clear
1:35 PM 64.4 °F 10.4 °F 12% 29.96 in 10.0 mi WNW 12.7 mph 27.6 mph N/A   Clear
1:55 PM 64.4 °F 10.4 °F 12% 29.95 in 10.0 mi NW 12.7 mph 20.7 mph N/A   Clear
2:15 PM 66.2 °F 10.4 °F 11% 29.94 in 10.0 mi NNW 10.4 mph 20.7 mph N/A   Clear
2:35 PM 66.2 °F 10.4 °F 11% 29.93 in 10.0 mi NW 10.4 mph 19.6 mph N/A   Clear
2:55 PM 66.2 °F 10.4 °F 11% 29.92 in 10.0 mi West 18.4 mph 24.2 mph N/A   Clear
3:15 PM 64.4 °F 10.4 °F 12% 29.92 in 10.0 mi WNW 10.4 mph 24.2 mph N/A   Clear
3:35 PM 66.2 °F 10.4 °F 11% 29.91 in 10.0 mi WNW 13.8 mph 25.3 mph N/A   Clear
3:55 PM 66.2 °F 12.2 °F 12% 29.91 in 10.0 mi West 18.4 mph 24.2 mph N/A   Clear
4:15 PM 66.2 °F 10.4 °F 11% 29.90 in 10.0 mi WNW 16.1 mph 26.5 mph N/A   Clear
4:35 PM 66.2 °F 12.2 °F 12% 29.90 in 10.0 mi NW 9.2 mph 17.3 mph N/A   Clear
4:55 PM 64.4 °F 10.4 °F 12% 29.91 in 10.0 mi NNW 9.2 mph 23.0 mph N/A   Clear
5:15 PM 64.4 °F 8.6 °F 11% 29.91 in 10.0 mi NW 12.7 mph 19.6 mph N/A   Clear
5:35 PM 64.4 °F 10.4 °F 12% 29.91 in 10.0 mi NW 13.8 mph 21.9 mph N/A   Clear
5:55 PM 62.6 °F 10.4 °F 13% 29.93 in 10.0 mi NW 10.4 mph 23.0 mph N/A   Clear
6:15 PM 62.6 °F 10.4 °F 13% 29.94 in 10.0 mi NNW 10.4 mph - N/A   Clear
6:35 PM 60.8 °F 12.2 °F 15% 29.95 in 10.0 mi NNW 8.1 mph 18.4 mph N/A   Clear
6:55 PM 59.0 °F 12.2 °F 16% 29.96 in 10.0 mi NNW 3.5 mph - N/A   Clear
7:15 PM 57.2 °F 12.2 °F 17% 29.96 in 10.0 mi NNW 4.6 mph - N/A   Clear
7:35 PM 57.2 °F 14.0 °F 18% 29.98 in 10.0 mi NNW 6.9 mph - N/A   Clear
7:55 PM 57.2 °F 14.0 °F 18% 29.99 in 10.0 mi NW 6.9 mph - N/A   Clear
8:15 PM 55.4 °F 12.2 °F 18% 30.00 in 10.0 mi NNW 5.8 mph - N/A   Clear
8:35 PM 55.4 °F 12.2 °F 18% 30.00 in 10.0 mi NNW 5.8 mph - N/A   Clear
8:55 PM 53.6 °F 12.2 °F 19% 30.01 in 10.0 mi NNW 6.9 mph - N/A   Clear
9:15 PM 53.6 °F 12.2 °F 19% 30.01 in 10.0 mi NNW 8.1 mph - N/A   Clear
9:35 PM 53.6 °F 12.2 °F 19% 30.02 in 10.0 mi North 6.9 mph - N/A   Clear
9:55 PM 53.6 °F 12.2 °F 19% 30.02 in 10.0 mi North 8.1 mph 17.3 mph N/A   Clear
10:15 PM 51.8 °F 12.2 °F 21% 30.03 in 10.0 mi NNW 11.5 mph 16.1 mph N/A   Clear
10:35 PM 51.8 °F 12.2 °F 21% 30.04 in 10.0 mi North 8.1 mph - N/A   Clear
10:55 PM 51.8 °F 14.0 °F 22% 30.04 in 10.0 mi North 4.6 mph - N/A   Clear
11:15 PM 50.0 °F 14.0 °F 24% 30.04 in 10.0 mi NNW 6.9 mph - N/A   Clear
11:35 PM 50.0 °F 12.2 °F 22% 30.05 in 10.0 mi NNW 5.8 mph - N/A   Clear
11:55 PM 48.2 °F 12.2 °F 24% 30.05 in 10.0 mi North 5.8 mph - N/A   Clear